| time (UTC) | temp C | wind direction | speed KPH | gust KPH | rain 1hr cm | rain 24hr cm | rain mn cm | humidity % | barometer mb |
| 20260503012855 | 14 | 184 | 3.2 | 8.0 | 0.10 | 0.08 | 0.05 | 1 | 1009.0 |
| 20260503010714 | 14 | 169 | 0.0 | 6.4 | 0.00 | 0.03 | 0.00 | 1 | 1009.2 |
| 20260503005736 | 13 | 169 | 0.0 | 0.0 | 0.00 | 0.03 | 0.00 | 1 | 1009.2 |
| 20260503004758 | 13 | 168 | 0.0 | 0.0 | 0.00 | 0.03 | 0.00 | 1 | 1009.2 |
| 20260503003754 | 13 | 167 | 0.0 | 0.0 | 0.00 | 0.03 | 0.00 | 1 | 1009.3 |
| 20260503002806 | 13 | 169 | 0.0 | 0.0 | 0.00 | 0.03 | 0.00 | 1 | 1009.3 |
| 20260503000613 | 13 | 169 | 0.0 | 0.0 | 0.00 | 0.03 | 0.00 | 1 | 1009.6 |
| 20260502235634 | 13 | 169 | 0.0 | 0.0 | 0.00 | 0.03 | 0.00 | 1 | 1009.8 |
| 20260502234635 | 13 | 169 | 0.0 | 0.0 | 0.00 | 0.03 | 0.00 | 1 | 1009.8 |
| 20260502233636 | 13 | 169 | 0.0 | 0.0 | 0.00 | 0.03 | 0.00 | 1 | 1009.8 |
| 20260502232650 | 13 | 169 | 0.0 | 0.0 | 0.00 | 0.03 | 0.00 | 1 | 1009.6 |
| 20260502231715 | 13 | 169 | 1.6 | 8.0 | 0.00 | 0.03 | 0.00 | 1 | 1009.8 |
| 20260502225723 | 13 | 168 | 3.2 | 6.4 | 0.00 | 0.03 | 0.03 | 1 | 1010.2 |
| 20260502224730 | 13 | 167 | 1.6 | 6.4 | 0.00 | 0.03 | 0.03 | 1 | 1010.1 |
| 20260502223737 | 13 | 169 | 0.0 | 1.6 | 0.00 | 0.03 | 0.03 | 1 | 1010.1 |
| 20260502222716 | 13 | 169 | 0.0 | 6.4 | 0.00 | 0.03 | 0.03 | 1 | 1010.2 |
| 20260502221722 | 13 | 169 | 0.0 | 0.0 | 0.00 | 0.03 | 0.03 | 1 | 1010.2 |
| 20260502220741 | 13 | 169 | 0.0 | 1.6 | 0.00 | 0.03 | 0.03 | 1 | 1010.5 |
| 20260502215737 | 13 | 169 | 0.0 | 0.0 | 0.00 | 0.03 | 0.03 | 1 | 1010.5 |
| 20260502211254 | 14 | 163 | 4.8 | 14.5 | 0.00 | 0.03 | 0.03 | 1 | 1010.7 |
| 20260502210243 | 14 | 157 | 6.4 | 14.5 | 0.00 | 0.03 | 0.03 | 1 | 1010.7 |
| 20260502205239 | 14 | 165 | 6.4 | 12.9 | 0.00 | 0.03 | 0.03 | 1 | 1010.9 |
| 20260502204303 | 14 | 157 | 6.4 | 14.5 | 0.00 | 0.03 | 0.03 | 1 | 1011.1 |
| 20260502203248 | 14 | 174 | 6.4 | 14.5 | 0.00 | 0.03 | 0.03 | 1 | 1011.2 |
| 20260502202255 | 14 | 150 | 6.4 | 11.3 | 0.00 | 0.03 | 0.03 | 1 | 1011.2 |
| 20260502201230 | 14 | 157 | 4.8 | 12.9 | 0.00 | 0.03 | 0.03 | 1 | 1011.2 |
| 20260502200207 | 14 | 146 | 4.8 | 12.9 | 0.00 | 0.03 | 0.03 | 1 | 1011.2 |
| 20260502195202 | 14 | 163 | 4.8 | 9.7 | 0.00 | 0.03 | 0.03 | 1 | 1011.4 |
| 20260502194216 | 14 | 187 | 4.8 | 14.5 | 0.00 | 0.03 | 0.03 | 1 | 1011.2 |
| 20260502193142 | 15 | 162 | 4.8 | 14.5 | 0.00 | 0.03 | 0.03 | 1 | 1011.1 |
| 20260502192136 | 15 | 176 | 6.4 | 14.5 | 0.00 | 0.03 | 0.03 | 1 | 1011.1 |
| 20260502191101 | 15 | 164 | 6.4 | 12.9 | 0.00 | 0.03 | 0.03 | 1 | 1011.0 |
| 20260502190042 | 15 | 157 | 6.4 | 12.9 | 0.00 | 0.03 | 0.03 | 1 | 1011.0 |
| 20260502183928 | 15 | 169 | 6.4 | 14.5 | 0.00 | 0.03 | 0.03 | 1 | 1010.8 |
| 20260502182948 | 15 | 173 | 4.8 | 14.5 | 0.00 | 0.03 | 0.03 | 1 | 1010.8 |
| 20260502181942 | 15 | 154 | 6.4 | 14.5 | 0.00 | 0.03 | 0.03 | 1 | 1010.8 |
| 20260502164337 | 20 | 149 | 3.2 | 9.7 | 0.00 | 0.00 | 0.00 | 53 | 1011.9 |
| 20260502163307 | 20 | 159 | 1.6 | 6.4 | 0.00 | 0.00 | 0.00 | 53 | 1011.8 |
| 20260502163105 | 20 | 157 | 1.6 | 8.0 | 0.00 | 0.00 | 0.00 | 53 | 1011.8 |
| 20260502150436 | 22 | 269 | 3.2 | 14.5 | 0.00 | 0.00 | 0.00 | 52 | 1013.0 |
| 20260502122757 | 20 | 77 | 6.4 | 17.7 | 0.00 | 0.00 | 0.00 | 39 | 1015.1 |
| 20260502121737 | 20 | 61 | 8.0 | 16.1 | 0.00 | 0.00 | 0.00 | 41 | 1015.3 |
| 20260502120751 | 20 | 17 | 8.0 | 16.1 | 0.00 | 0.00 | 0.00 | 40 | 1015.3 |
| 20260502115739 | 20 | 34 | 8.0 | 14.5 | 0.00 | 0.00 | 0.00 | 40 | 1015.3 |
| 20260502114733 | 20 | 42 | 6.4 | 14.5 | 0.00 | 0.00 | 0.00 | 44 | 1015.5 |
| 20260502113745 | 20 | 49 | 6.4 | 14.5 | 0.00 | 0.00 | 0.00 | 47 | 1015.6 |
| 20260502112728 | 20 | 51 | 6.4 | 11.3 | 0.00 | 0.00 | 0.00 | 46 | 1015.7 |
| 20260502111712 | 20 | 19 | 4.8 | 11.3 | 0.00 | 0.00 | 0.00 | 46 | 1015.9 |
| 20260502110650 | 20 | 44 | 4.8 | 14.5 | 0.00 | 0.00 | 0.00 | 46 | 1016.0 |
| 20260502105654 | 20 | 37 | 4.8 | 14.5 | 0.00 | 0.00 | 0.00 | 45 | 1016.1 |
| 20260502103510 | 20 | 34 | 3.2 | 11.3 | 0.00 | 0.00 | 0.00 | 42 | 1016.3 |
| 20260502102511 | 20 | 31 | 1.6 | 11.3 | 0.00 | 0.00 | 0.00 | 41 | 1016.3 |
| 20260502101452 | 19 | 35 | 3.2 | 11.3 | 0.00 | 0.00 | 0.00 | 37 | 1016.4 |
| 20260502100422 | 19 | 43 | 1.6 | 9.7 | 0.00 | 0.00 | 0.00 | 32 | 1016.4 |
| 20260502091323 | 17 | 295 | 1.6 | 8.0 | 0.00 | 0.00 | 0.00 | 1 | 1017.0 |
| 20260502090343 | 16 | 207 | 0.0 | 0.0 | 0.00 | 0.00 | 0.00 | 1 | 1017.1 |
| 20260502071134 | 13 | 265 | 3.2 | 11.3 | 0.00 | 0.00 | 0.00 | 1 | 1017.3 |
| 20260502070117 | 13 | 270 | 4.8 | 11.3 | 0.00 | 0.00 | 0.00 | 1 | 1017.3 |
| 20260502065124 | 12 | 229 | 3.2 | 9.7 | 0.00 | 0.00 | 0.00 | 1 | 1017.2 |
| 20260502064108 | 12 | 241 | 3.2 | 8.0 | 0.00 | 0.00 | 0.00 | 1 | 1017.1 |
| 20260502063119 | 12 | 233 | 3.2 | 9.7 | 0.00 | 0.00 | 0.00 | 1 | 1017.1 |
| 20260502062115 | 12 | 247 | 1.6 | 14.5 | 0.00 | 0.00 | 0.00 | 1 | 1017.0 |
| 20260502061108 | 12 | 248 | 4.8 | 14.5 | 0.00 | 0.00 | 0.00 | 1 | 1017.1 |
| 20260502054905 | 11 | 236 | 4.8 | 12.9 | 0.00 | 0.00 | 0.00 | 1 | 1017.1 |
| 20260502053834 | 11 | 252 | 6.4 | 14.5 | 0.00 | 0.00 | 0.00 | 1 | 1017.1 |
| 20260502052849 | 11 | 249 | 4.8 | 14.5 | 0.00 | 0.00 | 0.00 | 1 | 1017.1 |
| 20260502051912 | 11 | 269 | 4.8 | 12.9 | 0.00 | 0.00 | 0.00 | 1 | 1017.0 |
| 20260502050932 | 11 | 252 | 4.8 | 14.5 | 0.00 | 0.00 | 0.00 | 1 | 1017.0 |
| 20260502045918 | 11 | 255 | 6.4 | 14.5 | 0.00 | 0.00 | 0.00 | 1 | 1016.8 |
| 20260502044941 | 11 | 260 | 3.2 | 12.9 | 0.00 | 0.00 | 0.00 | 1 | 1016.9 |
| 20260502043930 | 11 | 259 | 4.8 | 12.9 | 0.00 | 0.00 | 0.00 | 1 | 1016.9 |
| 20260502042900 | 11 | 255 | 6.4 | 11.3 | 0.00 | 0.00 | 0.00 | 1 | 1016.9 |
| 20260502042009 | 11 | 240 | 6.4 | 14.5 | 0.00 | 0.00 | 0.00 | 1 | 1016.9 |
| 20260502041024 | 12 | 250 | 6.4 | 14.5 | 0.00 | 0.00 | 0.00 | 1 | 1016.9 |
| 20260502040029 | 12 | 242 | 6.4 | 14.5 | 0.00 | 0.00 | 0.00 | 1 | 1016.9 |
| 20260502035049 | 12 | 254 | 6.4 | 14.5 | 0.00 | 0.00 | 0.00 | 1 | 1016.9 |
| 20260502034014 | 12 | 269 | 6.4 | 12.9 | 0.00 | 0.00 | 0.00 | 1 | 1017.2 |
| 20260502033028 | 12 | 248 | 6.4 | 12.9 | 0.00 | 0.00 | 0.00 | 1 | 1017.1 |
| 20260502030916 | 12 | 251 | 4.8 | 14.5 | 0.00 | 0.00 | 0.00 | 1 | 1017.2 |
| 20260502025931 | 13 | 236 | 4.8 | 14.5 | 0.00 | 0.00 | 0.00 | 1 | 1017.1 |
| 20260502023827 | 13 | 212 | 4.8 | 12.9 | 0.00 | 0.00 | 0.00 | 5 | 1017.1 |
| 20260502022851 | 13 | 234 | 6.4 | 16.1 | 0.00 | 0.00 | 0.00 | 9 | 1017.1 |
| 20260502021824 | 13 | 238 | 8.0 | 16.1 | 0.00 | 0.00 | 0.00 | 12 | 1017.1 |
| 20260502020815 | 13 | 246 | 6.4 | 14.5 | 0.00 | 0.00 | 0.00 | 11 | 1017.2 |
| 20260502015822 | 13 | 248 | 4.8 | 14.5 | 0.00 | 0.00 | 0.00 | 1 | 1017.3 |
| 20260502014821 | 14 | 242 | 3.2 | 12.9 | 0.00 | 0.00 | 0.00 | 1 | 1017.4 |
| 20260502013811 | 14 | 257 | 4.8 | 12.9 | 0.00 | 0.00 | 0.00 | 1 | 1017.5 |